Time,TemperatureF,DewpointF,PressureIn,WindDirection,WindDirectionDegrees,WindSpeedMPH,WindSpeedGustMPH,Humidity,HourlyPrecipIn,Conditions,Clouds,dailyrainin,SoftwareType,DateUTC
2013-08-03 00:02:00,79.0,75.0,29.98,SSW,194,0.0,0.0,88,0.00,,,0.00,,2013-08-03 05:02:00,
2013-08-03 00:12:00,79.0,75.0,29.98,SSW,194,0.0,0.0,88,0.00,,,0.00,,2013-08-03 05:12:00,
2013-08-03 00:22:00,79.0,75.0,29.98,SSW,194,0.0,0.0,88,0.00,,,0.00,,2013-08-03 05:22:00,
2013-08-03 00:32:00,78.0,74.0,29.98,SSW,194,0.0,0.0,88,0.00,,,0.00,,2013-08-03 05:32:00,
2013-08-03 00:52:00,78.0,74.0,29.98,SSW,194,0.0,0.0,88,0.00,,,0.00,,2013-08-03 05:52:00,
2013-08-03 01:02:00,78.0,74.0,29.98,SSW,194,0.0,0.0,88,0.00,,,0.00,,2013-08-03 06:02:00,
2013-08-03 01:12:00,77.0,73.0,29.98,SSW,194,0.0,0.0,88,0.00,,,0.00,,2013-08-03 06:12:00,
2013-08-03 01:22:00,77.0,73.0,29.98,SSW,194,0.0,0.0,88,0.00,,,0.00,,2013-08-03 06:22:00,
2013-08-03 01:32:00,77.0,73.0,29.98,SSW,194,0.0,0.0,88,0.00,,,0.00,,2013-08-03 06:32:00,
2013-08-03 01:42:00,77.0,73.0,29.98,SSW,194,0.0,0.0,88,0.00,,,0.00,,2013-08-03 06:42:00,
2013-08-03 01:52:00,77.0,73.0,29.98,SSW,194,0.0,0.0,88,0.00,,,0.00,,2013-08-03 06:52:00,
2013-08-03 02:02:00,76.0,72.0,29.98,SSW,194,0.0,0.0,88,0.00,,,0.00,,2013-08-03 07:02:00,
2013-08-03 02:12:00,76.0,72.0,29.98,SSW,194,0.0,0.0,88,0.00,,,0.00,,2013-08-03 07:12:00,
2013-08-03 02:22:00,76.0,72.0,29.97,SSW,194,0.0,0.0,88,0.00,,,0.00,,2013-08-03 07:22:00,
2013-08-03 02:32:00,76.0,72.0,29.97,SSW,194,0.0,0.0,87,0.00,,,0.00,,2013-08-03 07:32:00,
2013-08-03 02:43:00,76.0,72.0,29.97,SSW,194,0.0,0.0,87,0.00,,,0.00,,2013-08-03 07:43:00,
2013-08-03 02:52:00,75.0,71.0,29.97,SSW,194,0.0,0.0,87,0.00,,,0.00,,2013-08-03 07:52:00,
2013-08-03 03:02:00,75.0,71.0,29.97,SSW,194,0.0,0.0,87,0.00,,,0.00,,2013-08-03 08:02:00,
2013-08-03 03:22:00,75.0,71.0,29.97,SSW,194,0.0,0.0,87,0.00,,,0.00,,2013-08-03 08:22:00,
2013-08-03 03:32:00,75.0,71.0,29.97,SSW,194,0.0,0.0,87,0.00,,,0.00,,2013-08-03 08:32:00,
2013-08-03 03:43:00,75.0,71.0,29.97,SSW,194,0.0,0.0,87,0.00,,,0.00,,2013-08-03 08:43:00,
2013-08-03 03:52:00,75.0,71.0,29.97,SSW,194,0.0,0.0,86,0.00,,,0.00,,2013-08-03 08:52:00,
2013-08-03 04:02:00,74.0,70.0,29.97,SSW,194,0.0,0.0,87,0.00,,,0.00,,2013-08-03 09:02:00,
2013-08-03 04:12:00,74.0,70.0,29.97,SSW,194,0.0,0.0,86,0.00,,,0.00,,2013-08-03 09:12:00,
2013-08-03 04:22:00,74.0,70.0,29.97,SSW,194,0.0,0.0,86,0.00,,,0.00,,2013-08-03 09:22:00,
2013-08-03 04:32:00,74.0,70.0,29.97,SSW,194,0.0,0.0,86,0.00,,,0.00,,2013-08-03 09:32:00,
2013-08-03 04:43:00,74.0,70.0,29.97,SSW,194,0.0,0.0,86,0.00,,,0.00,,2013-08-03 09:43:00,
2013-08-03 04:53:00,74.0,70.0,29.97,SSW,194,0.0,0.0,86,0.00,,,0.00,,2013-08-03 09:53:00,
2013-08-03 05:02:00,74.0,70.0,29.97,SSW,194,0.0,0.0,86,0.00,,,0.00,,2013-08-03 10:02:00,
2013-08-03 05:12:00,74.0,70.0,29.97,SSW,194,0.0,0.0,86,0.00,,,0.00,,2013-08-03 10:12:00,
2013-08-03 05:22:00,74.0,70.0,29.97,SSW,194,0.0,0.0,86,0.00,,,0.00,,2013-08-03 10:22:00,
2013-08-03 05:32:00,74.0,70.0,29.97,SSW,194,0.0,0.0,86,0.00,,,0.00,,2013-08-03 10:32:00,
2013-08-03 05:42:00,74.0,70.0,29.97,SSW,194,0.0,0.0,86,0.00,,,0.00,,2013-08-03 10:42:00,
2013-08-03 05:53:00,74.0,69.0,29.97,SSW,194,0.0,0.0,85,0.00,,,0.00,,2013-08-03 10:53:00,
2013-08-03 06:02:00,74.0,70.0,29.98,SSW,194,0.0,0.0,86,0.00,,,0.00,,2013-08-03 11:02:00,
2013-08-03 06:12:00,74.0,69.0,29.98,SSW,194,0.0,0.0,85,0.00,,,0.00,,2013-08-03 11:12:00,
2013-08-03 06:22:00,74.0,69.0,29.98,SSW,194,0.0,0.0,85,0.00,,,0.00,,2013-08-03 11:22:00,
2013-08-03 06:32:00,74.0,69.0,29.98,SSW,194,0.0,0.0,85,0.00,,,0.00,,2013-08-03 11:32:00,
2013-08-03 06:43:00,74.0,69.0,29.98,SSW,194,0.0,0.0,85,0.00,,,0.00,,2013-08-03 11:43:00,
2013-08-03 06:53:00,74.0,69.0,29.98,SSW,194,0.0,0.0,85,0.00,,,0.00,,2013-08-03 11:53:00,
2013-08-03 07:02:00,74.0,69.0,29.99,SSW,194,0.0,0.0,85,0.00,,,0.00,,2013-08-03 12:02:00,
2013-08-03 07:12:00,74.0,69.0,29.99,SSW,194,0.0,0.0,85,0.00,,,0.00,,2013-08-03 12:12:00,
2013-08-03 07:22:00,74.0,69.0,29.99,SSW,194,0.0,0.0,85,0.00,,,0.00,,2013-08-03 12:22:00,
2013-08-03 07:43:00,75.0,70.0,29.99,SSW,194,0.0,0.0,85,0.00,,,0.00,,2013-08-03 12:43:00,
2013-08-03 07:52:00,76.0,71.0,30.00,SSW,194,0.0,0.0,85,0.00,,,0.00,,2013-08-03 12:52:00,
2013-08-03 08:02:00,78.0,73.0,30.00,SSW,194,0.0,0.0,86,0.00,,,0.00,,2013-08-03 13:02:00,
2013-08-03 08:12:00,79.0,74.0,30.00,SSW,194,0.0,0.0,86,0.00,,,0.00,,2013-08-03 13:12:00,
2013-08-03 08:22:00,80.0,75.0,30.00,SSW,194,0.0,0.0,86,0.00,,,0.00,,2013-08-03 13:22:00,
2013-08-03 08:33:00,81.0,76.0,30.01,SSW,194,0.0,0.0,85,0.00,,,0.00,,2013-08-03 13:33:00,
2013-08-03 08:43:00,82.0,77.0,30.01,SSW,194,0.0,1.0,84,0.00,,,0.00,,2013-08-03 13:43:00,
2013-08-03 08:52:00,83.0,79.0,30.01,SSW,194,3.0,7.0,87,0.00,,,0.00,,2013-08-03 13:52:00,
2013-08-03 09:02:00,84.0,80.0,30.01,SSW,194,3.0,5.0,88,0.00,,,0.00,,2013-08-03 14:02:00,
2013-08-03 09:12:00,85.0,80.0,30.01,SSW,194,2.0,6.0,86,0.00,,,0.00,,2013-08-03 14:12:00,
2013-08-03 09:22:00,86.0,81.0,30.01,SSW,194,1.0,6.0,85,0.00,,,0.00,,2013-08-03 14:22:00,
2013-08-03 09:33:00,87.0,82.0,30.01,WSW,238,3.0,8.0,84,0.00,,,0.00,,2013-08-03 14:33:00,
2013-08-03 09:42:00,87.0,81.0,30.01,SSW,200,1.0,9.0,82,0.00,,,0.00,,2013-08-03 14:42:00,
2013-08-03 09:52:00,88.0,81.0,30.02,SW,225,4.0,8.0,80,0.00,,,0.00,,2013-08-03 14:52:00,
2013-08-03 10:02:00,89.0,82.0,30.02,SW,231,3.0,8.0,79,0.00,,,0.00,,2013-08-03 15:02:00,
2013-08-03 10:12:00,89.0,81.0,30.02,SW,234,2.0,8.0,77,0.00,,,0.00,,2013-08-03 15:12:00,
2013-08-03 10:23:00,89.0,80.0,30.02,WSW,238,5.0,9.0,76,0.00,,,0.00,,2013-08-03 15:23:00,
2013-08-03 10:32:00,89.0,81.0,30.03,WSW,244,1.0,6.0,77,0.00,,,0.00,,2013-08-03 15:32:00,
2013-08-03 10:43:00,90.0,81.0,30.03,SW,226,0.0,8.0,76,0.00,,,0.00,,2013-08-03 15:43:00,
2013-08-03 10:53:00,90.0,82.0,30.04,SW,232,1.0,7.0,77,0.00,,,0.00,,2013-08-03 15:53:00,
2013-08-03 11:02:00,91.0,81.0,30.04,SW,234,2.0,7.0,72,0.00,,,0.00,,2013-08-03 16:02:00,
2013-08-03 11:12:00,92.0,82.0,30.04,SW,235,0.0,5.0,73,0.00,,,0.00,,2013-08-03 16:12:00,
2013-08-03 11:23:00,91.0,80.0,30.04,WSW,238,3.0,6.0,70,0.00,,,0.00,,2013-08-03 16:23:00,
2013-08-03 11:33:00,91.0,80.0,30.04,SW,230,1.0,8.0,71,0.00,,,0.00,,2013-08-03 16:33:00,
2013-08-03 11:43:00,92.0,81.0,30.04,SW,229,2.0,6.0,70,0.00,,,0.00,,2013-08-03 16:43:00,
2013-08-03 11:53:00,92.0,81.0,30.04,West,273,1.0,13.0,70,0.00,,,0.00,,2013-08-03 16:53:00,
2013-08-03 12:03:00,91.0,80.0,30.04,West,276,1.0,5.0,71,0.00,,,0.00,,2013-08-03 17:03:00,
2013-08-03 12:12:00,92.0,80.0,30.04,West,268,0.0,6.0,69,0.00,,,0.00,,2013-08-03 17:12:00,
2013-08-03 12:22:00,92.0,79.0,30.03,West,259,2.0,7.0,67,0.00,,,0.00,,2013-08-03 17:22:00,
2013-08-03 12:32:00,92.0,80.0,30.03,West,259,2.0,5.0,68,0.00,,,0.00,,2013-08-03 17:32:00,
2013-08-03 12:43:00,92.0,80.0,30.03,West,259,0.0,3.0,68,0.00,,,0.00,,2013-08-03 17:43:00,
2013-08-03 12:52:00,94.0,81.0,30.02,WSW,257,3.0,9.0,66,0.00,,,0.00,,2013-08-03 17:52:00,
2013-08-03 13:02:00,93.0,79.0,30.02,SW,234,1.0,7.0,63,0.00,,,0.00,,2013-08-03 18:02:00,
2013-08-03 13:12:00,94.0,78.0,30.02,SW,229,0.0,5.0,60,0.00,,,0.00,,2013-08-03 18:12:00,
2013-08-03 13:22:00,95.0,79.0,30.02,South,184,1.0,7.0,61,0.00,,,0.00,,2013-08-03 18:22:00,
2013-08-03 13:32:00,95.0,80.0,30.02,South,173,5.0,8.0,62,0.00,,,0.00,,2013-08-03 18:32:00,
2013-08-03 13:43:00,95.0,79.0,30.01,South,180,3.0,8.0,60,0.00,,,0.00,,2013-08-03 18:43:00,
2013-08-03 13:53:00,96.0,79.0,30.01,South,182,3.0,10.0,58,0.00,,,0.00,,2013-08-03 18:53:00,
2013-08-03 14:02:00,96.0,79.0,30.01,South,178,0.0,7.0,59,0.00,,,0.00,,2013-08-03 19:02:00,
2013-08-03 14:12:00,96.0,79.0,30.01,SSW,198,4.0,7.0,59,0.00,,,0.00,,2013-08-03 19:12:00,
2013-08-03 14:22:00,96.0,77.0,30.01,South,181,0.0,8.0,55,0.00,,,0.00,,2013-08-03 19:22:00,
2013-08-03 15:02:00,96.0,80.0,30.00,South,181,2.0,5.0,60,0.00,,,0.00,,2013-08-03 20:02:00,
2013-08-03 15:12:00,96.0,80.0,29.99,South,171,3.0,8.0,60,0.00,,,0.00,,2013-08-03 20:12:00,
2013-08-03 15:32:00,96.0,79.0,29.99,South,175,2.0,6.0,59,0.00,,,0.00,,2013-08-03 20:32:00,
2013-08-03 15:52:00,96.0,78.0,29.98,SE,142,2.0,9.0,57,0.00,,,0.00,,2013-08-03 20:52:00,
2013-08-03 16:12:00,96.0,79.0,29.97,South,182,1.0,6.0,58,0.00,,,0.00,,2013-08-03 21:12:00,
2013-08-03 16:22:00,97.0,79.0,29.97,SSW,192,3.0,7.0,56,0.00,,,0.00,,2013-08-03 21:22:00,
2013-08-03 16:32:00,97.0,79.0,29.97,SSW,200,2.0,7.0,57,0.00,,,0.00,,2013-08-03 21:32:00,
2013-08-03 16:42:00,97.0,80.0,29.97,SW,215,1.0,7.0,58,0.00,,,0.00,,2013-08-03 21:42:00,
2013-08-03 16:52:00,97.0,79.0,29.97,SSW,211,1.0,9.0,57,0.00,,,0.00,,2013-08-03 21:52:00,
2013-08-03 17:02:00,97.0,79.0,29.97,SW,221,1.0,7.0,57,0.00,,,0.00,,2013-08-03 22:02:00,
2013-08-03 17:12:00,97.0,79.0,29.97,SW,234,5.0,8.0,57,0.00,,,0.00,,2013-08-03 22:12:00,
2013-08-03 17:22:00,96.0,79.0,29.97,SW,215,4.0,8.0,58,0.00,,,0.00,,2013-08-03 22:22:00,
2013-08-03 19:32:00,92.0,81.0,29.98,South,189,1.0,6.0,70,0.00,,,0.00,,2013-08-04 00:32:00,
2013-08-03 19:42:00,92.0,81.0,29.98,South,189,1.0,6.0,70,0.00,,,0.00,,2013-08-04 00:42:00,
2013-08-03 19:53:00,92.0,81.0,29.98,South,189,1.0,3.0,70,0.00,,,0.00,,2013-08-04 00:53:00,
2013-08-03 20:02:00,91.0,81.0,29.98,South,189,0.0,5.0,72,0.00,,,0.00,,2013-08-04 01:02:00,
2013-08-03 20:12:00,91.0,81.0,29.98,South,189,0.0,3.0,72,0.00,,,0.00,,2013-08-04 01:12:00,
2013-08-03 20:22:00,90.0,80.0,29.98,South,189,0.0,3.0,72,0.00,,,0.00,,2013-08-04 01:22:00,
2013-08-03 20:32:00,90.0,80.0,29.98,South,189,0.0,3.0,73,0.00,,,0.00,,2013-08-04 01:32:00,
2013-08-03 20:42:00,89.0,80.0,29.99,SSW,200,0.0,5.0,75,0.00,,,0.00,,2013-08-04 01:42:00,
2013-08-03 20:53:00,88.0,79.0,29.99,SSW,200,0.0,3.0,76,0.00,,,0.00,,2013-08-04 01:53:00,
2013-08-03 21:02:00,88.0,80.0,30.00,SSW,200,0.0,1.0,77,0.00,,,0.00,,2013-08-04 02:02:00,
2013-08-03 21:12:00,88.0,80.0,30.00,SSW,200,0.0,1.0,77,0.00,,,0.00,,2013-08-04 02:12:00,
2013-08-03 21:22:00,88.0,80.0,30.00,SSW,200,0.0,1.0,77,0.00,,,0.00,,2013-08-04 02:22:00,
2013-08-03 21:32:00,87.0,79.0,30.00,SSW,200,1.0,4.0,78,0.00,,,0.00,,2013-08-04 02:32:00,
2013-08-03 21:42:00,86.0,79.0,30.01,SSW,200,0.0,3.0,81,0.00,,,0.00,,2013-08-04 02:42:00,
2013-08-03 22:02:00,86.0,80.0,30.01,SSW,200,0.0,0.0,82,0.00,,,0.00,,2013-08-04 03:02:00,
2013-08-03 22:12:00,85.0,79.0,30.01,SSW,200,0.0,0.0,82,0.00,,,0.00,,2013-08-04 03:12:00,
2013-08-03 22:22:00,85.0,79.0,30.02,SSW,200,0.0,0.0,83,0.00,,,0.00,,2013-08-04 03:22:00,
2013-08-03 22:32:00,85.0,80.0,30.02,SSW,200,0.0,0.0,84,0.00,,,0.00,,2013-08-04 03:32:00,
2013-08-03 22:42:00,84.0,79.0,30.02,SSW,200,0.0,0.0,84,0.00,,,0.00,,2013-08-04 03:42:00,
2013-08-03 22:52:00,84.0,79.0,30.02,SSW,200,0.0,0.0,85,0.00,,,0.00,,2013-08-04 03:52:00,
2013-08-03 23:02:00,82.0,78.0,30.03,SSW,200,0.0,0.0,87,0.00,,,0.00,,2013-08-04 04:02:00,
2013-08-03 23:22:00,83.0,79.0,30.03,SSW,200,0.0,0.0,88,0.00,,,0.00,,2013-08-04 04:22:00,
2013-08-03 23:32:00,83.0,79.0,30.03,SSW,200,0.0,1.0,88,0.00,,,0.00,,2013-08-04 04:32:00,
2013-08-03 23:42:00,83.0,79.0,30.03,SSW,200,0.0,1.0,88,0.00,,,0.00,,2013-08-04 04:42:00,
2013-08-03 23:52:00,83.0,79.0,30.03,SSW,200,0.0,1.0,87,0.00,,,0.00,,2013-08-04 04:52:00,